Location: Sobotiste
(48.7170°N, 17.4000°E)
Time: 03:14:54
(UTC+02:00)

Envisat - Visible Passes

Search period start: 18 August 2018 00:00
Search period end: 28 August 2018 00:00
Orbit: 764 x 766 km, 98.2° (Epoch: 17 August)

Date Brightness Start Highest point End Pass type
(mag) Time Alt. Az. Time Alt. Az. Time Alt. Az.
18 Aug 5.3 20:54:32 10° SSW 20:58:43 25° W 21:02:55 10° NW visible
20 Aug 5.7 21:21:37 10° WSW 21:24:35 15° W 21:27:34 10° NW visible
21 Aug 4.9 20:42:58 10° SSW 20:47:27 31° W 20:51:57 10° NNW visible
23 Aug 5.6 21:09:42 10° SW 21:13:17 19° W 21:16:52 10° NW visible
24 Aug 4.5 20:31:29 10° SSW 20:36:12 38° W 20:40:57 10° NNW visible
25 Aug 6.0 21:37:42 10° WSW 21:39:12 11° W 21:40:43 10° WNW visible
26 Aug 5.4 20:57:57 10° SW 21:01:59 23° W 21:06:02 10° NW visible
27 Aug 4.1 20:20:05 10° S 20:24:58 47° W 20:29:53 10° NNW visible
